Location: Bijele Vode
(45.2833°N, 16.2000°E)
Time: 12:10:57
(UTC+00:00)

CENTAUR R/B - Pass Details

Date: 24 January 2021
Orbit: 742 x 1446 km, 63.5° (Epoch: 02 March)

Event Time Altitude Azimuth Distance (km) Brightness Sun altitude
Rises 04:03:47 0° 176° (S) 3,331 5.4 -24.5°
Reaches altitude 10° 04:06:26 10° 164° (SSE) 2,482 4.9 -24.1°
Maximum altitude 04:11:06 26° 109° (ESE) 1,764 4.5 -23.2°
Drops below altitude 10° 04:16:22 10° 56° (NE) 2,856 5.6 -22.3°
Sets 04:19:39 0° 45° (NE) 3,944 6.2 -21.7°
